SONATE
1 44400U 19038Q   25122.78004083  .00218454  00000-0  12308-2 0  9995
2 44400  97.6957 145.0829 0005314  63.9047 296.2765 15.78565814323586
Taurus 1
1 44530U 19059C   25122.63098024  .00012740  00000-0  23645-2 0  9990
2 44530  98.6029 260.2463 0010817 151.8253 208.3536 14.65321481298389
Duchifat 3
1 44854U 19089C   25122.68967028  .00068807  00000-0  14912-2 0  9998
2 44854  36.9437 235.5367 0001474 320.1119  39.9528 15.43328663297086
TO-108
1 44881U 19093C   25122.77325682  .00001707  00000-0  20355-3 0  9992
2 44881  97.7933 199.2134 0013707   1.9973 358.1295 14.85517937290465
FloripaSat 1
1 44885U 19093G   25122.74739415  .00009249  00000-0  78624-3 0  9997
2 44885  97.8153 210.2858 0009995 338.4085  21.6714 14.98038328291080
RS-44
1 44909U 19096E   25122.63697987  .00000023  00000-0  47094-4 0  9991
2 44909  82.5205 252.4853 0217753  24.5832 336.5464 12.79740280249835
UPMSat 2
1 46276U 20061E   25122.54390674  .00087332  00000-0  92889-3 0  9996
2 46276  97.2460 195.7855 0001301 146.0525 214.0818 15.63742595259516
SALSAT
1 46495U 20068K   25122.56164931  .00012910  00000-0  56471-3 0  9990
2 46495  97.8590  98.8567 0009688 299.3911  60.6356 15.22169189252746
CubeSX-Sirius-HSE
1 47951U 21022V   25122.71662980  .00321083  00000-0  17604-2 0  9991
2 47951  97.4163  33.8916 0009714  99.7393 260.4972 15.78868523227845
CubeSX-HSE
1 47952U 21022W   25122.73318154  .00325298  00000-0  17430-2 0  9994
2 47952  97.4179  34.1600 0009065  97.6831 262.5466 15.79377916227865
GRBAlpha
1 47959U 21022AD  25122.71308746  .00301963  00000-0  16894-2 0  9991
2 47959  97.4167  34.2417 0009274  98.7552 261.4765 15.78470258226681
TUBIN
1 48900U 21059X   25122.40148720  .00067396  00000-0  92670-3 0  9994
2 48900  97.6742 288.6310 0002527  23.0713 337.0654 15.57065723214093
LEDSAT
1 49069U 21073D   25122.86804092  .00090975  00000-0  13032-2 0  9991
2 49069  97.3900 202.9704 0011712 208.9703 151.0903 15.55791589205565
CUTE
1 49263U 21088D   25122.62899008  .00020923  00000-0  43707-3 0  9997
2 49263  97.4517 197.8222 0008271  30.7864 329.3868 15.45502102198569
TeikyoSat 4
1 49396U 21102B   25122.58496207  .00004102  00000-0  27414-3 0  9998
2 49396  97.4137 162.3818 0010972 262.4409  97.5573 15.07468806190820
Z-Sat
1 49399U 21102E   25122.88606073  .00007130  00000-0  39415-3 0  9996
2 49399  97.3832 165.5398 0016972 230.8630 129.1094 15.14064880191275
KOSEN 1
1 49402U 21102H   25122.75236108  .00012093  00000-0  56676-3 0  9997
2 49402  97.3739 168.5453 0015533 205.4291 154.6181 15.19731235191544
HO-113
1 50466U 21131B   25122.77366417  .00000981  00000-0  32056-3 0  9999
2 50466  98.5086 212.3165 0003155 238.5049 121.5831 14.40763960176009
IRIS-A
1 51044U 22002BN  25122.85551182  .00346661  00000-0  14946-2 0  9999
2 51044  97.3238 201.4130 0005165 243.8658 116.2081 15.84085712183891
Foresail-1
1 52766U 22057AL  25122.40765642  .00245624  00000-0  13455-2 0  9991
2 52766  97.6053 270.1241 0001141 297.1996  62.9154 15.79136356163840
SNUGLITE 2
1 52899U 22065F   25122.33087499  .00002476  00000-0  49102-3 0  9991
2 52899  98.1632 264.6908 0006759 225.7813 134.2834 14.63110163150898
IO-117
1 53106U 22080B   25051.21822557 -.00000003  00000-0  00000+0 0  9995
2 53106  70.1434 106.3440 0008542  48.0089 312.1297  6.42557744 61200
UmKA 1 (RS40S)
1 57172U 23091G   25122.89670616  .00011423  00000-0  61476-3 0  9990
2 57172  97.5607 178.4809 0016228 104.8627 255.4403 15.14895121101778
CubeBel-2 (EU11S)
1 57175U 23091K   25122.88894529  .00017528  00000-0  84883-3 0  9992
2 57175  97.5607 179.4003 0014136 113.0836 247.1890 15.18532501101837
VERONIKA
1 58261U 23174F   25122.74600817  .00147342  00000-0  17240-2 0  9991
2 58261  97.4135 206.9293 0007458 188.7319 171.3809 15.61043256 82760
ENSO
1 58470U 23185J   25122.70609644  .00071607  00000-0  11914-2 0  9990
2 58470  97.3752 196.7235 0008355 208.6244 151.4551 15.51765150 79159
EIRSAT-1
1 58472U 23185L   25122.76211954  .00118494  00000-0  14411-2 0  9992
2 58472  97.3720 198.1236 0007595 208.4151 151.6693 15.60124534 79258
SONATE-2
1 59112U 24043Q   25122.62313681  .00027371  00000-0  82005-3 0  9991
2 59112  97.5085 253.0889 0010677 245.4473 114.5657 15.34423114 64512
MO-122
1 60209U 24125G   25122.51469000  .00028496  00000-0  84309-3 0  9994
2 60209  97.2840 334.5874 0017603 273.5873  86.3357 15.34710277 46116
GRBBeta
1 60237U 24128C   25122.73413135  .00006797  00000-0  51445-3 0  9995
2 60237  61.9914 211.4771 0048669  48.9734 311.5548 15.02292127 44513
Curium One
1 60242U 24128H   25122.43102180  .00012460  00000-0  87542-3 0  9994
2 60242  61.9812 211.3570 0048549  44.3502 316.1462 15.04516510 44492
ROBUSTA-3A
1 60243U 24128J   25122.62187037  .00012172  00000-0  86663-3 0  9993
2 60243  61.9882 211.3945 0047105  42.2860 318.1848 15.04096021 44510
CatSat
1 60246U 24125J   25122.36486702  .00016103  00000-0  54973-3 0  9992
2 60246  97.2627 334.0730 0042112 228.6107 131.1510 15.29529446 44141
HYPERVIEW-1G (RS66S)
1 61772U 24199AP  25122.92513322  .00036918  00000-0  11205-2 0  9995
2 61772  97.3586 351.8927 0012787 334.4424  25.6185 15.33923785 71187
AO-123
1 61781U 24199AY  25122.86199364  .00011834  00000-0  43659-3 0  9993
2 61781  97.3597 351.0877 0015150 337.7431  22.3149 15.27825517 71121
ZIMSAT 2
1 61783U 24199BA  25122.89511712  .00057855  00000-0  15380-2 0  9995
2 61783  97.3571 352.2222 0012620 332.5446  27.5131 15.37966333 74359
HADES-R (SO-124)
1 62690U 25009CK  25122.29530878  .00061175  00000-0  23377-2 0  9997
2 62690  97.4096 203.3278 0003913 199.2225 160.8866 15.26379122 16304
HYDRA-T
1 62692U 25009CM  25122.35189068  .00060649  00000-0  23035-2 0  9993
2 62692  97.4097 203.4035 0003865 194.3120 165.8010 15.26584895 16317
JINJUSat 1B
1 63210U 25052A   25122.55015661  .00019528  00000-0  91474-3 0  9990
2 63210  97.4454  17.1712 0006624  94.2060 265.9932 15.19731278  7473
NUSHSAT 1
1 63211U 25052B   25122.41783871  .00021984  00000-0  10255-2 0  9997
2 63211  97.4446  17.0369 0006674  98.2799 261.9193 15.19850475  7454
TEVEL2-4
1 63213U 25052D   25122.55619980  .00020962  00000-0  98528-3 0  9998
2 63213  97.4362  17.1078 0005647 108.4558 251.7291 15.19602838  7473
TEVEL2-5
1 63214U 25052E   25122.62225402  .00020195  00000-0  94973-3 0  9997
2 63214  97.4359  17.1728 0005603 108.6081 251.5763 15.19593095  7484
TEVEL2-6
1 63215U 25052F   25122.68924695  .00020842  00000-0  98096-3 0  9993
2 63215  97.4351  17.2367 0005692 108.6650 251.5203 15.19557302  7498
TEVEL2-1
1 63217U 25052H   25122.43170246  .00021796  00000-0  10318-2 0  9992
2 63217  97.4340  16.9544 0005608 118.5098 241.6702 15.19348693  7455
TEVEL2-2
1 63218U 25052J   25122.69538569  .00020566  00000-0  97370-3 0  9995
2 63218  97.4340  17.2140 0005689 118.7923 241.3884 15.19354812  7492
TEVEL2-3
1 63219U 25052K   25122.69540690  .00020274  00000-0  96007-3 0  9996
2 63219  97.4339  17.2139 0005616 118.8396 241.3403 15.19351555  7492
TEVEL2-8
1 63237U 25052AD  25122.53357020  .00020384  00000-0  99766-3 0  9999
2 63237  97.4399  17.0106 0009748 137.3596 222.8396 15.18175181  7468
TEVEL2-9
1 63238U 25052AE  25122.20502912  .00020497  00000-0  10048-2 0  9996
2 63238  97.4401  16.6863 0009754 138.5441 221.6534 15.18117258  7414
TEVEL2-7
1 63239U 25052AF  25122.66749919  .00019915  00000-0  97696-3 0  9995
2 63239  97.4400  17.1378 0009780 137.5276 222.6716 15.18099016  7486
HYDRA-W
1 63490U 25052BL  25122.87910633  .00045585  00000-0  20327-2 0  9998
2 63490  97.4350  17.4364 0014271 136.3435 223.8932 15.21165787  7523
HADES-ICM
1 63492U 25052BN  25122.81903771  .00045087  00000-0  20302-2 0  9999
2 63492  97.4357  17.3665 0014397 139.9935 220.2364 15.20832464  7519
